Elkins, WV

9:11 PM EST on November 24, 2017 (GMT -0500)
Elkins-Randolph County

Weather History for KEKN - September, 2013

Change the Weather History Date:

Sunday, September 1, 2013

  Actual Average Record
Temperature  
Mean Temperature 72 °F 67 °F  
Max Temperature 82 °F 78 °F 94 °F (1932)
Min Temperature 62 °F 56 °F 38 °F (1999)
Degree Days  
Heating Degree Days 0 1  
Month to date heating degree days 0 1  
Since 1 July heating degree days 23 31  
Cooling Degree Days 7 3  
Month to date cooling degree days 7 3  
Year to date cooling degree days 470 429  
Growing Degree Days 22 (Base 50)    
Moisture  
Dew Point 63 °F    
Average Humidity 77    
Maximum Humidity 100    
Minimum Humidity 54    
Precipitation  
Precipitation T in 0.12 in 1.43 in (1981)
Month to date precipitation T 0.12  
Year to date precipitation 32.92 32.93  
Snow  
Snow 0.00 in - - ()
Month to date snowfall 0.0  
Since 1 September snowfall 0.0  
Snow Depth 0.00 in    
Sea Level Pressure  
Sea Level Pressure 29.91 in    
Wind  
Wind Speed 0 mph (WSW)    
Max Wind Speed 7 mph    
Max Gust Speed 9 mph    
Visibility 8 miles    
Events Rain    
T = Trace of Precipitation, MM = Missing Value Source: NWS Daily Summary

Daily Weather History Graph

Daily Weather History Graph

Search for Another Location

Airport or City:

Trip Planner

Search our weather history database for the weather conditions in past years. The results will help you decide how hot, cold, wet, or windy it might be!

Date:

Astronomy

Sep. 01, 2013 Rise Set
Actual Time 6:48 AM EDT 7:49 PM EDT
Civil Twilight 6:21 AM EDT 8:16 PM EDT
Nautical Twilight 5:48 AM EDT 8:49 PM EDT
Astronomical Twilight 5:14 AM EDT 9:22 PM EDT
Moon 3:10 AM EDT (9/1) 5:24 PM EDT (9/1)
Length of Visible Light 13h 55m
Length of Day
13h 00m
Waning Crescent, 14% of the Moon is Illuminated
Sep 1
Waning Crescent
Sep 5
New
Sep 12
First Quarter
Sep 19
Full
Sep 26
Last Quarter

Hourly Weather History & Observations

Time (EDT) Temp. Heat Index Dew Point Humidity Pressure Visibility Wind Dir Wind Speed Gust Speed Precip Events Conditions
12:51 AM 64.0 °F - 62.1 °F 93% 29.93 in 10.0 mi Calm Calm - N/A   Clear
12:58 AM 64.4 °F - 62.6 °F 94% 29.95 in 10.0 mi Calm Calm - N/A   Scattered Clouds
1:51 AM 64.0 °F - 62.1 °F 93% 29.91 in 8.0 mi Calm Calm - N/A   Partly Cloudy
1:59 AM 64.4 °F - 62.6 °F 94% 29.94 in 1.8 mi WSW 3.5 mph - N/A   Scattered Clouds
2:02 AM 64.4 °F - 62.6 °F 94% 29.94 in 0.8 mi WSW 3.5 mph - N/A   Mist
2:32 AM 62.6 °F - 62.6 °F 100% 29.94 in 2.0 mi Calm Calm - N/A   Mostly Cloudy
2:40 AM 62.6 °F - 62.6 °F 100% 29.94 in 6.0 mi Calm Calm - N/A   Mostly Cloudy
2:51 AM 63.0 °F - 61.0 °F 93% 29.91 in 4.0 mi Calm Calm - N/A   Mostly Cloudy
2:58 AM 62.6 °F - 62.6 °F 100% 29.93 in 2.5 mi Calm Calm - N/A   Mostly Cloudy
3:01 AM 62.6 °F - 62.6 °F 100% 29.93 in 1.8 mi Calm Calm - N/A   Mostly Cloudy
3:24 AM 62.6 °F - 60.8 °F 94% 29.92 in 3.0 mi Calm Calm - N/A   Mostly Cloudy
3:28 AM 62.6 °F - 62.6 °F 100% 29.92 in 1.5 mi Calm Calm - N/A   Mostly Cloudy
3:51 AM 63.0 °F - 61.0 °F 93% 29.88 in 1.5 mi Calm Calm - N/A   Overcast
4:21 AM 62.6 °F - 60.8 °F 94% 29.92 in 3.0 mi Calm Calm - N/A   Mostly Cloudy
4:44 AM 62.6 °F - 60.8 °F 94% 29.92 in 10.0 mi Calm Calm - N/A   Scattered Clouds
4:51 AM 62.1 °F - 61.0 °F 96% 29.88 in 10.0 mi Calm Calm - N/A   Mostly Cloudy
5:51 AM 63.0 °F - 61.0 °F 93% 29.90 in 10.0 mi Calm Calm - N/A   Mostly Cloudy
5:58 AM 62.6 °F - 60.8 °F 94% 29.93 in 10.0 mi Calm Calm - N/A   Mostly Cloudy
6:20 AM 62.6 °F - 62.6 °F 100% 29.93 in 6.0 mi Calm Calm - N/A   Overcast
6:51 AM 63.0 °F - 62.1 °F 97% 29.91 in 7.0 mi Calm Calm - N/A   Overcast
7:27 AM 64.4 °F - 62.6 °F 94% 29.94 in 10.0 mi Calm Calm - N/A   Mostly Cloudy
7:38 AM 64.4 °F - 62.6 °F 94% 29.95 in 9.0 mi Calm Calm - N/A   Mostly Cloudy
7:51 AM 64.9 °F - 63.0 °F 93% 29.93 in 10.0 mi Calm Calm - N/A   Mostly Cloudy
8:51 AM 69.1 °F - 64.0 °F 84% 29.93 in 10.0 mi Calm Calm - N/A   Mostly Cloudy
9:51 AM 75.0 °F - 64.9 °F 71% 29.92 in 10.0 mi Calm Calm - N/A   Clear
10:51 AM 77.0 °F - 62.1 °F 60% 29.91 in 10.0 mi Calm Calm - N/A   Partly Cloudy
11:51 AM 80.1 °F 81.5 °F 63.0 °F 56% 29.90 in 10.0 mi Calm Calm - N/A   Scattered Clouds
12:51 PM 81.0 °F 82.2 °F 63.0 °F 54% 29.90 in 10.0 mi Calm Calm - N/A   Scattered Clouds
1:51 PM 80.1 °F 81.5 °F 63.0 °F 56% 29.90 in 10.0 mi Calm Calm - N/A   Scattered Clouds
2:51 PM 80.1 °F 81.5 °F 63.0 °F 56% 29.88 in 10.0 mi SSW 3.5 mph - N/A   Scattered Clouds
3:51 PM 79.0 °F - 64.0 °F 60% 29.87 in 10.0 mi Calm Calm - N/A   Clear
4:51 PM 77.0 °F - 64.9 °F 66% 29.87 in 10.0 mi Calm Calm - 0.00 in Rain Light Rain
5:51 PM 75.9 °F - 66.0 °F 71% 29.86 in 10.0 mi NW 3.5 mph - 0.00 in   Scattered Clouds
6:51 PM 75.0 °F - 66.9 °F 76% 29.86 in 10.0 mi Calm Calm - N/A   Clear
7:51 PM 72.0 °F - 66.9 °F 84% 29.86 in 10.0 mi Calm Calm - N/A   Scattered Clouds
8:51 PM 68.0 °F - 64.9 °F 90% 29.88 in 10.0 mi Calm Calm - N/A   Clear
9:51 PM 68.0 °F - 64.9 °F 90% 29.89 in 10.0 mi Calm Calm - N/A   Clear
10:51 PM 64.9 °F - 63.0 °F 93% 29.90 in 10.0 mi Calm Calm - N/A   Clear
11:32 PM 66.2 °F - 64.4 °F 94% 29.93 in 10.0 mi Calm Calm - N/A   Mostly Cloudy
11:51 PM 66.0 °F - 64.0 °F 93% 29.89 in 10.0 mi Calm Calm - N/A   Mostly Cloudy